Wind_Speed
16 16 17 17 17 17 17 18 19 19 19 19 19 19 19 18 18 18 17 17 16 16 15 15 15 15 15 15 15 16 16 16 17 17 18 18 19 21 22 22 23 23
17 17 18 18 18 17 17 18 19 19 19 20 20 19 19 18 18 17 17 16 16 16 15 14 15 15 15 15 15 15 16 16 17 18 18 18 19 20 22 23 23 23
17 17 18 18 17 17 17 18 18 18 19 20 20 19 19 18 17 17 16 16 15 14 14 14 14 14 15 15 15 15 16 16 17 18 18 18 19 21 22 22 23 23
15 16 17 17 17 16 16 16 17 17 18 19 19 19 18 17 16 16 15 15 14 13 13 13 14 14 15 15 15 15 16 16 17 17 17 18 19 21 21 22 22 23
14 15 16 16 16 15 15 15 15 16 17 18 18 17 16 15 15 14 14 13 12 13 13 14 14 14 15 15 15 15 15 16 16 17 17 18 20 21 21 21 22 22
12 14 14 14 14 14 14 14 15 16 16 16 15 15 14 13 13 12 12 11 12 13 13 14 14 14 15 15 14 15 15 15 16 17 18 18 19 20 20 20 21 22
12 14 14 14 14 15 14 15 15 15 14 13 12 12 12 11 10 10 10 11 12 13 13 14 14 14 14 14 14 14 14 15 16 18 18 18 18 19 19 20 21 22
13 14 14 15 15 15 15 14 13 12 11 11 10 10 9 9 9 9 10 11 12 13 14 14 14 13 13 13 13 14 15 15 17 17 18 17 17 18 18 20 21 23
15 15 15 15 15 15 14 13 12 10 9 8 7 8 8 8 8 9 10 11 12 13 13 13 12 12 12 13 13 14 15 16 17 17 17 17 17 18 19 20 22 23
16 16 16 15 15 14 12 11 10 8 7 6 6 7 8 7 8 9 10 11 12 12 12 11 11 11 12 13 14 15 16 16 16 16 16 17 17 18 19 20 22 23
17 17 16 14 13 12 11 9 8 6 5 5 6 7 7 7 9 10 10 11 11 11 10 10 11 12 13 14 14 15 15 15 15 16 16 17 18 19 19 20 21 23
15 16 15 13 12 11 9 8 6 5 5 6 7 7 7 8 9 10 10 10 10 10 10 11 12 12 13 14 15 15 15 15 15 15 16 17 18 19 20 21 22 22
14 14 14 12 11 9 8 7 6 5 6 7 7 7 7 8 9 9 9 9 9 10 10 11 12 12 13 14 14 14 14 14 15 15 16 17 18 20 21 21 22 22
13 13 13 12 10 8 7 7 6 6 7 7 7 8 8 9 9 9 9 9 9 10 11 11 12 12 13 13 13 13 13 14 14 15 16 17 19 20 21 22 23 23
13 13 13 11 9 8 8 7 6 6 7 8 8 8 9 9 9 9 9 9 10 10 11 11 12 12 12 12 12 13 13 14 14 15 16 18 19 20 21 22 23 24
13 12 12 11 9 8 8 7 7 7 8 9 9 9 9 9 9 9 9 9 10 10 10 11 11 11 11 11 12 12 13 14 15 16 16 17 19 20 21 22 23 24
13 13 12 11 10 9 8 8 7 9 10 10 9 9 9 10 9 9 9 9 10 10 10 11 11 10 10 11 11 12 13 14 15 16 16 17 18 19 21 22 22 23
13 14 12 11 10 9 9 8 9 10 10 10 10 10 10 10 9 9 9 9 9 9 10 10 10 10 10 10 11 12 13 14 15 15 16 16 18 19 20 21 22 23
14 14 13 11 11 10 9 9 10 11 11 10 10 10 10 10 9 9 9 9 9 9 9 9 9 9 9 10 11 12 12 13 14 15 16 16 17 18 19 20 21 22
15 15 13 12 12 11 10 11 11 12 11 11 11 11 10 10 9 9 9 8 8 8 8 7 8 8 9 10 10 11 12 12 14 15 16 16 17 18 19 20 21 22
16 16 14 13 13 12 12 12 12 12 12 11 11 11 11 10 10 9 8 8 7 7 7 7 7 8 9 9 10 10 11 12 14 15 15 16 17 18 19 20 21 22
16 16 15 14 13 13 13 13 13 13 13 13 12 11 11 10 10 9 8 7 6 6 6 6 7 7 8 8 9 10 11 12 13 14 14 15 16 18 19 20 21 22
16 17 15 14 13 14 14 14 14 14 14 13 12 11 11 11 9 8 7 6 5 5 5 6 6 6 7 7 8 9 11 12 12 13 14 15 16 17 18 20 21 22
17 18 16 14 14 15 15 15 15 15 14 14 13 12 11 10 9 7 6 5 4 5 5 5 5 5 6 6 7 9 10 11 11 12 14 15 17 17 18 20 21 23
17 18 16 15 16 16 16 17 16 16 15 15 14 13 11 10 8 7 6 5 4 4 4 4 4 4 5 6 7 8 9 9 11 13 14 16 17 18 19 21 22 23
17 18 17 16 17 17 18 18 18 17 16 16 15 14 12 10 8 6 5 5 4 4 3 2 2 3 3 5 6 7 8 9 11 13 15 16 17 18 20 21 23 23
Wind_Direction
234 242 250 257 260 262 263 266 268 270 272 274 277 282 285 287 288 289 290 292 295 297 299 301 302 304 305 304 303 301 301 303 304 308 310 313 315 315 316 319 321 323
248 254 259 262 262 262 263 265 267 269 273 276 279 282 284 285 287 289 292 294 298 300 301 303 303 303 303 300 299 298 299 302 304 307 310 314 317 317 319 323 325 325
255 260 263 264 265 266 267 268 269 271 274 276 278 280 282 285 288 291 295 297 299 301 301 302 301 300 299 297 296 296 298 302 304 308 313 318 319 320 323 326 326 325
259 262 265 266 268 272 272 271 272 272 274 275 277 281 284 288 291 293 295 297 298 299 298 298 297 295 294 292 293 295 299 303 307 311 317 320 321 324 327 327 326 326
258 261 263 266 268 270 269 269 271 270 272 275 278 282 286 288 290 292 294 294 295 295 295 294 292 290 289 288 291 295 300 305 310 315 320 324 325 327 329 327 326 328
262 266 266 268 267 266 266 265 266 267 270 275 278 282 285 286 288 289 291 292 292 292 292 290 287 285 284 286 290 296 302 309 314 318 324 328 328 328 328 327 326 327
270 273 269 267 265 264 263 263 265 268 272 276 279 282 283 284 285 285 287 288 288 288 285 282 280 279 282 287 293 301 308 315 319 322 327 329 329 328 328 327 327 328
271 273 268 264 262 262 262 263 266 269 273 276 277 279 279 279 280 281 282 282 281 280 277 275 275 278 284 291 299 307 314 319 322 324 328 329 329 330 330 328 328 329
268 269 265 261 259 260 261 262 265 267 269 271 271 271 271 274 277 277 277 276 274 273 271 271 275 281 290 299 307 313 318 322 324 326 329 330 330 331 330 329 330 331
264 263 261 259 257 258 260 261 263 264 266 267 263 264 267 270 272 271 271 269 267 266 267 271 280 290 298 306 312 316 320 323 326 329 332 332 330 330 330 330 332 333
260 258 257 256 254 255 257 260 263 264 262 258 255 259 265 268 267 266 264 262 261 263 269 279 290 298 304 309 314 318 322 326 330 332 333 331 329 330 332 334 335 335
258 256 255 252 250 253 257 262 262 256 252 252 254 261 264 263 262 262 259 257 259 266 277 288 296 301 306 310 316 321 326 330 332 333 333 330 329 332 335 337 336 335
263 259 253 249 249 253 256 261 256 248 250 254 258 261 260 259 258 257 255 255 262 273 284 292 297 301 308 313 320 326 330 332 333 332 332 330 331 335 337 336 336 337
273 265 253 247 247 249 253 256 251 248 250 253 257 257 256 257 254 250 251 257 268 280 287 292 297 304 312 318 325 330 331 332 332 332 334 333 334 337 337 337 338 339
278 265 251 244 241 243 248 249 245 244 247 250 253 253 251 250 247 246 252 262 274 282 286 292 300 308 316 324 329 331 331 331 332 334 337 337 337 338 339 339 340 341
275 257 244 238 236 239 243 241 239 240 244 249 251 250 246 241 240 246 256 268 275 279 286 296 305 314 322 329 330 330 331 333 334 338 341 341 340 339 340 342 343 343
267 246 236 233 233 238 237 234 235 238 244 249 247 242 239 236 240 251 261 268 271 277 290 301 311 321 327 330 329 329 333 336 338 341 344 343 341 340 341 343 344 343
257 237 230 229 230 234 233 230 233 237 242 244 238 233 232 235 244 254 259 263 270 282 298 309 318 326 327 328 329 332 337 340 341 342 344 344 343 342 343 344 343 343
250 230 225 225 227 229 229 229 232 234 237 237 232 229 233 240 248 251 253 261 274 291 305 315 322 324 325 328 332 337 341 343 342 343 345 346 344 344 345 344 343 345
243 225 220 221 223 226 227 230 232 229 230 232 229 228 234 241 243 243 249 263 281 297 308 316 320 322 327 332 336 340 343 344 344 346 347 346 347 347 347 346 346 347
238 221 217 218 220 224 228 231 230 225 224 228 228 229 231 232 232 237 251 269 286 300 309 315 321 326 331 335 339 344 346 347 348 349 349 349 350 351 350 349 349 350
233 219 216 216 218 225 229 231 228 222 220 224 227 227 224 222 227 238 256 274 289 301 309 315 324 329 332 337 344 348 349 350 351 351 351 353 355 355 353 351 351 353
228 218 215 214 218 226 229 229 226 221 219 222 224 220 215 219 230 243 260 276 288 298 307 317 325 329 334 341 348 352 353 353 354 355 356 358 360 357 354 354 355 355
227 218 213 212 219 227 229 227 225 221 217 217 216 213 213 221 233 246 262 273 282 293 304 315 323 328 338 348 354 358 358 357 359 2 3 4 3 359 358 359 359 358
230 218 211 212 220 226 227 226 224 220 215 210 208 210 214 221 234 246 256 263 271 282 296 309 321 332 345 355 1 5 5 6 9 11 11 9 5 2 3 4 2 1
236 218 210 215 222 226 227 227 223 216 209 204 205 211 216 221 232 241 242 247 257 265 277 297 316 334 352 7 14 14 14 19 22 21 17 13 8 7 8 8 6 3
Height
3162 3163 3164 3164 3164 3165 3164 3163 3163 3162 3162 3162 3162 3161 3161 3160 3160 3159 3158 3158 3157 3156 3155 3155 3154 3153 3152 3151 3151 3150 3149 3147 3146 3145 3144 3142 3140 3138 3136 3134 3132 3130
3160 3161 3162 3162 3162 3163 3162 3161 3161 3160 3160 3160 3159 3159 3158 3158 3158 3157 3157 3156 3155 3154 3154 3153 3152 3151 3151 3150 3149 3148 3147 3146 3145 3143 3142 3141 3138 3136 3133 3132 3130 3128
3158 3159 3160 3160 3160 3160 3160 3159 3158 3158 3158 3157 3157 3157 3157 3156 3156 3155 3155 3154 3153 3153 3152 3151 3151 3150 3150 3149 3148 3147 3146 3145 3144 3142 3141 3139 3136 3133 3132 3130 3128 3126
3157 3157 3158 3158 3157 3157 3157 3157 3156 3156 3156 3155 3155 3155 3155 3154 3154 3153 3153 3152 3151 3151 3150 3150 3149 3149 3148 3148 3147 3146 3145 3144 3142 3140 3139 3136 3134 3132 3130 3128 3126 3124
3155 3155 3155 3155 3155 3155 3155 3155 3154 3154 3154 3153 3153 3153 3153 3152 3152 3151 3151 3150 3150 3149 3149 3148 3148 3148 3147 3147 3146 3145 3144 3142 3140 3138 3136 3134 3132 3130 3129 3127 3125 3123
3153 3153 3153 3153 3153 3153 3153 3153 3153 3152 3152 3151 3151 3151 3151 3150 3150 3150 3149 3149 3148 3148 3148 3147 3147 3147 3146 3146 3145 3144 3142 3141 3138 3136 3135 3133 3131 3129 3127 3125 3123 3121
3152 3152 3152 3152 3152 3152 3151 3151 3151 3150 3150 3149 3149 3149 3149 3148 3148 3148 3148 3147 3147 3147 3147 3147 3146 3146 3145 3144 3143 3142 3140 3139 3136 3134 3133 3131 3129 3128 3126 3124 3122 3120
3150 3150 3150 3150 3150 3150 3150 3149 3148 3148 3148 3148 3148 3147 3147 3147 3147 3147 3146 3146 3146 3146 3146 3146 3145 3145 3144 3143 3142 3140 3139 3137 3135 3133 3131 3130 3128 3127 3125 3123 3120 3118
3149 3149 3149 3149 3149 3148 3148 3147 3146 3146 3146 3146 3146 3146 3146 3146 3146 3146 3145 3145 3145 3145 3145 3145 3144 3143 3142 3141 3140 3138 3137 3135 3133 3132 3130 3128 3127 3125 3123 3121 3119 3117
3147 3147 3147 3147 3147 3146 3146 3145 3145 3145 3145 3145 3145 3144 3144 3144 3145 3144 3144 3144 3144 3144 3144 3143 3143 3142 3141 3139 3138 3136 3135 3133 3132 3130 3128 3127 3125 3124 3122 3120 3118 3115
3145 3145 3145 3145 3144 3144 3143 3143 3143 3143 3143 3143 3143 3143 3143 3143 3143 3143 3143 3143 3143 3143 3142 3142 3141 3140 3139 3138 3136 3135 3133 3132 3130 3129 3127 3125 3123 3122 3120 3118 3116 3114
3143 3143 3143 3142 3142 3142 3141 3141 3141 3141 3142 3142 3142 3142 3142 3142 3142 3142 3142 3142 3142 3141 3141 3140 3140 3139 3137 3136 3135 3133 3132 3130 3129 3127 3125 3124 3122 3120 3119 3117 3115 3113
3140 3140 3140 3140 3140 3139 3139 3139 3140 3140 3140 3140 3140 3140 3140 3140 3140 3140 3140 3140 3140 3140 3140 3139 3138 3137 3136 3135 3133 3132 3130 3129 3127 3126 3124 3122 3120 3119 3117 3115 3114 3111
3138 3137 3137 3137 3137 3137 3137 3137 3138 3138 3138 3138 3138 3139 3139 3139 3139 3139 3139 3139 3139 3139 3138 3137 3137 3136 3134 3133 3132 3130 3129 3127 3126 3124 3123 3121 3119 3117 3116 3114 3112 3110
3135 3135 3135 3135 3135 3135 3135 3136 3136 3137 3137 3137 3137 3137 3137 3137 3138 3138 3138 3138 3138 3137 3137 3136 3135 3134 3133 3131 3130 3129 3127 3126 3124 3123 3122 3120 3117 3116 3114 3112 3110 3108
3132 3132 3133 3133 3133 3133 3134 3134 3135 3135 3135 3135 3135 3136 3136 3136 3136 3137 3137 3136 3136 3136 3135 3135 3134 3132 3131 3130 3129 3127 3126 3125 3123 3122 3120 3118 3117 3115 3113 3111 3109 3106
3130 3130 3130 3131 3131 3131 3132 3133 3133 3134 3133 3133 3134 3135 3135 3135 3135 3135 3135 3135 3135 3134 3134 3133 3132 3131 3130 3129 3127 3126 3125 3123 3122 3120 3119 3118 3116 3114 3112 3110 3108 3106
3128 3128 3128 3129 3129 3130 3130 3131 3132 3132 3132 3132 3133 3133 3133 3134 3134 3134 3134 3134 3133 3133 3132 3131 3130 3129 3128 3127 3126 3125 3123 3122 3121 3119 3118 3117 3115 3113 3111 3109 3107 3105
3126 3126 3126 3127 3127 3128 3129 3129 3130 3130 3130 3131 3131 3132 3132 3132 3132 3132 3132 3132 3132 3131 3131 3130 3129 3128 3127 3126 3125 3124 3122 3121 3120 3119 3117 3116 3114 3112 3110 3108 3106 3104
3123 3123 3124 3124 3125 3126 3127 3128 3128 3129 3129 3129 3130 3130 3130 3130 3131 3131 3131 3131 3131 3130 3129 3128 3128 3127 3126 3125 3124 3123 3122 3121 3119 3118 3116 3115 3113 3111 3110 3108 3106 3103
3121 3121 3121 3122 3123 3124 3125 3126 3127 3127 3127 3127 3128 3128 3129 3129 3129 3130 3130 3130 3129 3129 3128 3127 3126 3126 3125 3124 3123 3122 3121 3120 3118 3117 3116 3114 3113 3111 3109 3107 3105 3102
3118 3118 3119 3120 3121 3123 3124 3124 3125 3125 3125 3125 3126 3127 3127 3128 3128 3129 3129 3128 3128 3127 3127 3126 3125 3125 3124 3123 3122 3121 3120 3119 3118 3116 3115 3114 3112 3110 3108 3106 3104 3101
3116 3116 3117 3118 3120 3121 3122 3123 3123 3124 3124 3124 3124 3125 3126 3127 3127 3127 3127 3127 3126 3126 3125 3125 3124 3124 3123 3122 3122 3121 3120 3118 3117 3116 3114 3113 3111 3110 3108 3106 3103 3101
3113 3114 3115 3116 3118 3119 3120 3121 3122 3122 3122 3123 3123 3124 3125 3126 3126 3126 3126 3125 3125 3125 3124 3124 3123 3123 3122 3122 3121 3120 3119 3117 3117 3115 3114 3112 3111 3109 3107 3105 3102 3100
3111 3112 3113 3114 3116 3117 3119 3120 3120 3120 3120 3121 3122 3123 3124 3124 3125 3125 3124 3124 3124 3124 3123 3123 3123 3122 3122 3121 3120 3119 3118 3117 3116 3115 3113 3112 3110 3108 3106 3104 3101 3099
3109 3110 3111 3112 3114 3116 3117 3118 3118 3118 3119 3120 3121 3122 3123 3123 3123 3123 3123 3123 3123 3123 3122 3122 3122 3122 3121 3120 3119 3118 3118 3117 3115 3114 3113 3111 3110 3108 3105 3103 3101 3099